Starlink 33751

operational
NORAD ID: 63512 Int'l Des: 2025-071 Owner: SPXS Country: US Constellation: starlink
LEOCIRCULAR

About Starlink 33751

Description loading...

Live Position

Loading 3D Globe...

Upcoming Passes

Altitude History

Altitude vs Time

uPlot chart will show altitude changes over time

Two-Line Element Set

1 63512U 25071V 25257.24885361 .00021942 00000-0 75032-3 0 9998
2 63512 53.1590 239.6033 0001681 100.5342 259.5848 15.30219656 25735
Epoch: Sep 14, 2025 • Age: 26 hours

Current Status

Altitude 485.6 km
Velocity 7.62 km/s
Sub-Earth Point -32.36°S, 32.07°W
Launch Date Apr 7, 2025
Age 0.4 years
Type internet

Technical Details

Classification Payload
Mass 575.00 kg
Dry Mass 530.00 kg
Total Mass 575.00 kg
Length 0.30 m
Diameter 4.10 m
Span 29.00 m
Shape Box + pan
Manufacturer SPXS
Bus Type Starlink V2MO
Phase Status In Orbit
Owner/State SPXS/US

Large Constellations

Loading constellations...